ギャラッド彗星

C/2010 H1 ( Garradd )

English version
Home page
Updated on October 3, 2010

---------------------------------------------------------------------

・ プロフィール

発見日 2010年4月16日
発見光度 18.6等
発見者 G. J. Garradd (Siding Spring Survey)

・ 軌道要素

Epoch 2010 June 13.0 TT = JDT 2455360.5
T 2010 June 18.91819 TT                                 MPC
q   2.7454650            (2000.0)            P               Q
z  +0.0001426      Peri.  233.82674     -0.71765825     +0.68415025
 +/-0.0000355      Node   347.38335     -0.27132957     -0.44664678
e   0.9996085      Incl.   36.53077     -0.64136332     -0.57658051

・ 光度変化

        m1 = 12.5 + 5 logΔ + 10.0 log r

---------------------------------------------------------------------

軌道要素はM.P.E.C. 2010-N08に掲載されたものです。
光度グラフはComet for Windowsで作成したものです。

---------------------------------------------------------------------

Copyright(C) Seiichi Yoshida (comet@aerith.net). All rights reserved.